Regional Weather Roundup
Issued by NWS Upton, NY

Current Version | Previous Version | Text Only | Print | Product List | Glossary On
Versions: 1 2 3 4 5 6 7 8 9 10 11 12 13 14 15 16 17 18 19 20 21 22 23 24 25 26 27 28 29 30 31 32 33 34 35 36 37 38 39 40 41 42 43 44 45 46 47 48 49 50
000
ASUS41 KOKX 010705
RWROKX

REGIONAL WEATHER ROUNDUP
NATIONAL WEATHER SERVICE NEW YORK NY
200 AM EST SUN FEB 01 2015

NOTE: "FAIR" INDICATES FEW OR NO CLOUDS BELOW 12,000 FEET WITH NO
SIGNIFICANT WEATHER AND/OR OBSTRUCTIONS TO VISIBILITY.

NYZ071-072-176-178-NJZ106-104-010800-
NEW YORK CITY METRO AREA


CITY           SKY/WX    TMP DP  RH WIND       PRES   REMARKS
CENTRAL PARK   PTCLDY    21   6  52 W3        30.21S
LAGUARDIA APRT MOCLDY    22   7  52 W12       30.20S WCI  10
KENNEDY INTL   PTCLDY    22   8  55 W17       30.22R WCI   8
NEWARK/LIBERTY FAIR      19   6  57 W7        30.22S WCI  10
BRNX BOT. GARD   N/A    N/A N/A N/A W14       30.22R
TETERBORO      CLOUDY    19   5  54 W5        30.21R WCI  12
$$

NYZ177-179-078>081-010800-
LONG ISLAND NEW YORK

CITY           SKY/WX    TMP DP  RH WIND       PRES   REMARKS
FARMINGDALE    CLEAR     18   6  59 CALM      30.19S
ISLIP          CLEAR     13   3  64 SW5       30.17R WCI   5
SHIRLEY        CLEAR     10   0  63 SW5       30.19S WCI   2
WESTHAMPTON    CLEAR      7  -2  66 CALM      30.19S
MONTAUK POINT    N/A     22  11  62 NW15G25   30.16R WCI   9
$$

NYZ052-065-067-010800-
HUDSON VALLEY

CITY           SKY/WX    TMP DP  RH WIND       PRES   REMARKS
WHITE PLAINS   CLEAR     17   6  62 W9        30.14R WCI   6
NEWBURGH       MOCLDY    14   7  73 W14       30.16S WCI  -1
MONTGOMERY     CLOUDY    17   6  62 SW12      30.15R WCI   4
POUGHKEEPSIE   MOCLDY     4  -4  69 CALM      30.16S
ALBANY         FLURRIES  15   6  67 NW6       30.14S WCI   6
$$

NJZ001-105-106-008-010-013-015-019>022-104-010800-
NEW JERSEY

CITY           SKY/WX    TMP DP  RH WIND       PRES   REMARKS
NEWARK/LIBERTY FAIR      19   6  57 W7        30.22S WCI  10
TETERBORO      CLOUDY    19   5  54 W5        30.21R WCI  12
CALDWELL       MOCLDY    15   4  61 W3        30.20F
MORRISTOWN     MOCLDY    12   7  79 CALM      30.20F
SOMERVILLE     PTCLDY     9   3  77 CALM      30.21S
SUSSEX         CLOUDY    10   3  73 CALM      30.17R
ANDOVER          N/A      7   3  84 CALM      30.17F
TRENTON        CLEAR     19   6  57 W3        30.22F
MILLVILLE      CLEAR     15   9  76 CALM      30.26S
ATLANTIC CITY  CLEAR     22   9  57 W7        30.24F WCI  13
WRIGHTSTOWN    CLEAR     19   9  66 W5        30.21F WCI  12
TOMS RIVER     CLEAR     12  10  92 CALM      30.22F
BELMAR         CLEAR     18   3  53 W5        30.21F WCI  11
$$

PAZ047>061-062-071-010800-
EASTERN PENNSYLVANIA

CITY           SKY/WX    TMP DP  RH WIND       PRES   REMARKS
PHILADELPHIA   PTCLDY    23  11  60 SW7       30.26F WCI  15
ALLENTOWN      CLOUDY    17   7  64 SW6       30.20F WCI   9
SCRANTON       CLOUDY    15   6  67 CALM      30.15S
$$

CTZ002-004>006-009-010-012-RIZ004-006-007-MAZ004-011-015-010800-
SOUTHERN NEW ENGLAND
 IN CT

CITY           SKY/WX    TMP DP  RH WIND       PRES   REMARKS
BRADLEY INTL   PTCLDY    15   4  61 W8        30.12R WCI   4
HARTFORD       CLEAR     16   5  62 SW9       30.15R WCI   4
DANBURY        PTCLDY     3  -4  72 CALM      30.15R
WTRBRY/OXFORD  PTCLDY    10  -4  52 W3        30.12R
BRIDGEPORT     PTCLDY    15   5  64 W5        30.18R WCI   8
MERIDEN        CLEAR      6   0  76 CALM      30.17R
NEW HAVEN      CLEAR     17   5  59 NW7       30.17R WCI   8
CHESTER        FAIR      12   3  67 W3        30.14R
GROTON         CLEAR     16   6  65 W15       30.14R WCI   1
WILLIMANTIC    PTCLDY     4  -3  73 CALM      30.12R

 IN RI

CITY           SKY/WX    TMP DP  RH WIND       PRES   REMARKS
PROVIDENCE     CLEAR     14  -2  49 W10       30.11R WCI   1
BLOCK ISLAND   CLEAR     19   7  58 NW17G32   30.10R WCI   4
WESTERLY       CLEAR     13   1  59 W5        30.14R WCI   5

 IN MA

CITY           SKY/WX    TMP DP  RH WIND       PRES   REMARKS
BOSTON         CLEAR     14  -6  40 W20G28    30.06R WCI  -3
WORCESTER      CLEAR    N/A N/A N/A W9        30.00R
WESTFIELD      PTCLDY     5  -3  69 CALM      30.10R
PROVINCETOWN   CLEAR     19   7  58 NW25G33   30.01S WCI   2
NANTUCKET      CLEAR     20   2  45 NW25G32   30.03S WCI   2
$$

ANZ330-335-338-340-345-350-353-355-010800-
COASTAL MARINE OBSERVATIONS


STATION/POSITION TIME  SKY/WX   TEMP    WIND        PRES    VSBY  WAVE
                                AIR SEA DIR/SP/G                  HT/PER
                 (UTC)          (F)     (DEG/KT/KT) (MB)    (MI)  (FT/S)
NY HARB ENTRANCE 0700            27 39  280/ 16/ 21 1023.0          2/ 4
4S FIRE IS       NOT AVBL
20S FIRE ISLAND  0600               41              1022.5          5/ 5
23SW MTP         0700                                 N/A           5/ 5
HUDSON CANYON    NOT AVBL
EXECUTION ROCKS  0700            23 32  260/ 16/ 19   N/A
WESTERN LI SOUND 0700            22     270/ 14/ 16   N/A           1
CENTRAL LI SOUND 0600            21 34  290/ 14/ 17   N/A           3/ 4
EASTERN LI SOUND NOT AVBL
ROBBINS REEF     0700            22     270/  9/ 11 1022.0
$$


>>>>>>>>>>>>>>>>>>>>>>>>>>>> KEY <<<<<<<<<<<<<<<<<<<<<<<<<<<
>                                                          <
>     SKY/WX - SKY CONDITION/PRESENT WEATHER               <
>     TMP    - TEMPERATURE IN FAHRENHEIT                   <
>     DP     - DEWPOINT IN FAHRENHEIT                      <
>     RH     - RELATIVE HUMIDITY IN PERCENT                <
>     WIND   - DIRECTION AND SPEED IN MPH                  <
>     PRES   - MEAN SEA LEVEL PRESSURE IN INCHES OF HG     <
>     WCI    - WIND CHILL INDEX                            <
>     VSB    - VISIBILITY IN MILES                         <
>     HX     - HEAT INDEX                                  <
>     TC     - TEMPERATURE IN CELSIUS                      <
>     VRB    - VARIABLE WIND DIRECTION                     <
>                                                          <
>>>>>>>>>>>>>>>>>>>>>>>>>>>> KEY <<<<<<<<<<<<<<<<<<<<<<<<<<<




USA.gov is the U.S. government's official web portal to all federal, state and local government web resources and services.